GW7934 Weather Reports


Display with metric or nautical units.
time (UTC)temp
F
wind
direction
speed
MPH
gust
MPH
rain 1hr
in
rain 24hr
in
rain mn
in
humidity
%
barometer
mb
20260906064508 72 191 0.0 0.0 0.00 0.00 0.00 91 1011.7
20260906063012 72 191 0.0 0.0 0.00 0.00 0.00 91 1011.9
20260906061520 72 191 0.0 0.0 0.00 0.00 0.00 91 1012.4
20260906060028 72 191 0.0 0.0 0.00 0.00 0.00 90 1012.5
20260906054509 72 191 0.0 0.0 0.00 0.00 0.00 90 1012.8
20260906053010 72 239 0.0 0.0 0.00 0.00 0.00 90 1012.9
20260906051520 73 278 0.0 0.0 0.00 0.00 0.00 90 1013.1
20260906050025 72 16 0.0 0.0 0.00 0.00 0.00 90 1013.1
20260906044526 72 18 0.0 1.0 0.00 0.00 0.00 90 1013.1
20260906043010 73 65 0.0 0.0 0.00 0.00 0.00 90 1013.1
20260906041514 73 90 0.0 0.0 0.00 0.00 0.00 89 1013.0
20260906040018 73 101 0.0 2.0 0.00 0.00 0.00 89 1012.9
20260906034528 73 46 0.0 2.0 0.00 0.00 0.00 88 1012.8
20260906033006 74 256 0.0 1.0 0.00 0.00 0.00 87 1012.8
20260906031512 74 28 0.0 0.0 0.00 0.00 0.00 87 1012.9
20260906030018 74 27 0.0 1.0 0.00 0.00 0.00 86 1012.9
20260906024525 74 179 1.0 2.0 0.00 0.00 0.00 87 1013.0
20260906023029 75 131 3.0 4.0 0.00 0.00 0.00 86 1013.1
20260906021514 75 59 0.0 0.0 0.00 0.00 0.00 85 1013.1
20260906020017 75 119 0.0 0.0 0.00 0.00 0.00 85 1012.9
20260906014535 75 114 0.0 0.0 0.00 0.00 0.00 84 1012.8
20260906013026 76 150 0.0 0.0 0.00 0.00 0.00 83 1012.7
20260906011531 76 241 0.0 2.0 0.00 0.00 0.00 83 1012.6
20260906010014 76 155 0.0 2.0 0.00 0.00 0.00 82 1012.2
20260906004518 77 181 0.0 2.0 0.00 0.00 0.00 81 1012.1
20260906003028 77 143 0.0 2.0 0.00 0.00 0.00 80 1011.9
20260906001531 78 125 0.0 1.0 0.00 0.00 0.00 79 1011.8
20260906000032 78 115 0.0 2.0 0.00 0.00 0.00 78 1012.0
20260905234517 78 145 0.0 3.0 0.00 0.00 0.00 77 1012.2
20260905233023 79 170 0.0 2.0 0.00 0.00 0.00 76 1012.2
20260905231527 79 157 3.0 7.0 0.00 0.00 0.00 73 1012.0
20260905230038 80 155 1.0 6.0 0.00 0.00 0.00 70 1012.0
20260905224515 81 157 1.0 4.0 0.00 0.00 0.00 67 1012.1
20260905223030 82 98 0.0 0.0 0.00 0.00 0.00 65 1012.0
20260905221528 82 82 0.0 0.0 0.00 0.00 0.00 66 1012.3
20260905220031 81 66 0.0 2.0 0.00 0.00 0.00 68 1011.6
20260905214531 81 1 0.0 2.0 0.00 0.00 0.00 70 1011.2
20260905213019 81 337 0.0 2.0 0.00 0.00 0.00 70 1011.4
20260905211525 80 141 2.0 6.0 0.00 0.00 0.00 68 1012.1
20260905210029 80 179 2.0 5.0 0.00 0.00 0.00 67 1012.7
20260905204528 81 25 4.0 8.0 0.00 0.00 0.00 70 1012.3
20260905203031 87 25 7.0 14.0 0.00 0.00 0.00 58 1012.3
20260905201522 97 5 2.0 3.0 0.00 0.00 0.00 47 1010.9
20260905200004 98 12 0.0 2.0 0.00 0.00 0.00 44 1010.7
20260905194507 99 20 1.0 2.0 0.00 0.00 0.00 44 1011.1
20260905193012 99 254 0.0 7.0 0.00 0.00 0.00 43 1011.0
20260905191513 99 55 1.0 5.0 0.00 0.00 0.00 44 1011.2
20260905190036 99 12 1.0 5.0 0.00 0.00 0.00 45 1011.1
20260905184508 99 26 2.0 4.0 0.00 0.00 0.00 44 1011.4
20260905183015 98 38 2.0 6.0 0.00 0.00 0.00 46 1011.9
20260905181522 97 1 0.0 2.0 0.00 0.00 0.00 48 1012.0
20260905180020 97 72 2.0 4.0 0.00 0.00 0.00 47 1012.4
20260905174517 98 80 1.0 4.0 0.00 0.00 0.00 47 1012.6
20260905173010 94 15 0.0 4.0 0.00 0.00 0.00 50 1012.8
20260905171514 93 289 2.0 5.0 0.00 0.00 0.00 53 1012.9
20260905170016 94 155 1.0 8.0 0.00 0.00 0.00 51 1013.3
20260905164527 94 236 2.0 6.0 0.00 0.00 0.00 55 1013.6
20260905163010 93 264 2.0 5.0 0.00 0.00 0.00 55 1013.8
20260905161514 92 174 2.0 5.0 0.00 0.00 0.00 57 1013.9
20260905160019 91 215 3.0 7.0 0.00 0.00 0.00 60 1014.0
20260905154523 90 258 3.0 6.0 0.00 0.00 0.00 61 1014.2
20260905153029 90 221 2.0 6.0 0.00 0.00 0.00 61 1014.4
20260905151509 90 268 1.0 6.0 0.00 0.00 0.00 64 1014.5
20260905150019 89 224 1.0 5.0 0.00 0.00 0.00 66 1014.6
20260905144523 87 240 2.0 6.0 0.00 0.00 0.00 70 1014.7
20260905143024 86 53 1.0 6.0 0.00 0.00 0.00 71 1014.8
20260905141524 85 34 3.0 6.0 0.00 0.00 0.00 73 1014.9
20260905140016 84 298 1.0 3.0 0.00 0.00 0.00 75 1014.8
20260905134525 83 236 2.0 4.0 0.00 0.00 0.00 78 1014.9
20260905133032 82 283 2.0 5.0 0.00 0.00 0.00 79 1015.0
20260905131536 81 244 3.0 6.0 0.00 0.00 0.00 82 1015.1
20260905130036 79 271 1.0 5.0 0.00 0.00 0.00 85 1015.2
20260905124518 78 248 1.0 4.0 0.00 0.00 0.00 87 1015.0
20260905123025 77 185 0.0 4.0 0.00 0.00 0.00 88 1014.9
20260905121532 76 201 0.0 3.0 0.00 0.00 0.00 89 1014.7
20260905120033 76 221 1.0 3.0 0.00 0.00 0.00 90 1014.7
20260905114518 75 210 0.0 3.0 0.00 0.00 0.00 91 1014.7
20260905113026 75 257 0.0 3.0 0.00 0.00 0.00 91 1014.6
20260905111548 75 236 1.0 2.0 0.00 0.00 0.00 91 1014.5
20260905110011 75 210 0.0 2.0 0.00 0.00 0.00 90 1014.3
20260905104516 75 240 0.0 2.0 0.00 0.00 0.00 90 1014.2
20260905103027 75 271 0.0 2.0 0.00 0.00 0.00 90 1014.1
20260905101504 75 154 0.0 0.0 0.00 0.00 0.00 90 1013.9
20260905100015 76 259 0.0 0.0 0.00 0.00 0.00 89 1013.9
20260905094514 76 199 0.0 0.0 0.00 0.00 0.00 89 1014.0
20260905093024 76 195 0.0 0.0 0.00 0.00 0.00 89 1013.8
20260905091525 76 203 0.0 0.0 0.00 0.00 0.00 89 1014.0
20260905090008 76 193 0.0 0.0 0.00 0.00 0.00 89 1014.1
20260905084512 76 148 0.0 0.0 0.00 0.00 0.00 89 1014.0
20260905083016 76 188 0.0 0.0 0.00 0.00 0.00 89 1014.0
20260905081526 76 255 0.0 0.0 0.00 0.00 0.00 89 1014.0
20260905080027 76 243 0.0 0.0 0.00 0.00 0.00 89 1014.1
20260905074511 76 176 0.0 0.0 0.00 0.00 0.00 88 1014.2
20260905073022 76 176 0.0 0.0 0.00 0.00 0.00 88 1014.2
20260905071537 76 176 0.0 0.0 0.00 0.00 0.00 87 1014.2
20260905070030 77 140 0.0 0.0 0.00 0.00 0.00 86 1014.4